timestamp,wind_dir_avg,wind_spd_avg,wind_spd_max_dir,wind_spd_gust,battery_voltage,lat,long
2021-02-05 00:04:01+00:00,46.0,4.43,46.0,4.71,12.49,47.59359,-54.27349
2021-02-05 00:14:01+00:00,44.0,3.74,45.0,3.99,12.49,47.59359,-54.27349
2021-02-05 00:24:01+00:00,39.0,3.66,40.0,3.92,12.49,47.59359,-54.27349
2021-02-05 00:34:01+00:00,32.0,3.15,31.0,3.48,12.49,47.59359,-54.27349
2021-02-05 00:44:01+00:00,42.0,3.38,44.0,3.74,12.49,47.59359,-54.27349
2021-02-05 00:54:01+00:00,54.0,3.41,50.0,4.38,12.49,47.59359,-54.27349
2021-02-05 01:04:01+00:00,56.0,3.3,53.0,3.83,12.49,47.59359,-54.27349
2021-02-05 01:14:01+00:00,61.0,3.73,64.0,3.98,12.49,47.59359,-54.27349
2021-02-05 01:24:01+00:00,68.0,3.53,70.0,3.9,12.49,47.59359,-54.27349
2021-02-05 01:34:01+00:00,43.0,2.24,45.0,2.57,12.49,47.59359,-54.27349
2021-02-05 01:44:01+00:00,35.0,1.59,27.0,2.53,12.49,47.59359,-54.27349
2021-02-05 01:54:01+00:00,49.0,4.38,51.0,4.95,12.49,47.59359,-54.27349
2021-02-05 02:04:01+00:00,44.0,3.17,50.0,3.96,12.49,47.59359,-54.27349
2021-02-05 02:14:01+00:00,47.0,3.58,49.0,4.09,12.41,47.59359,-54.27349
2021-02-05 02:24:01+00:00,41.0,3.63,44.0,3.97,12.41,47.59359,-54.27349
2021-02-05 02:34:01+00:00,36.0,4.7,34.0,5.21,12.41,47.59359,-54.27349
2021-02-05 02:44:01+00:00,45.0,4.59,46.0,5.3,12.41,47.59359,-54.27349
2021-02-05 02:54:01+00:00,43.0,4.17,43.0,4.7,12.41,47.59359,-54.27349
2021-02-05 03:04:01+00:00,50.0,3.25,52.0,3.95,12.41,47.59359,-54.27349
2021-02-05 03:14:01+00:00,315.0,0.01,0.0,0.0,12.41,47.59359,-54.27349
2021-02-05 03:24:01+00:00,56.0,4.68,55.0,5.21,12.41,47.59359,-54.27349
2021-02-05 03:34:01+00:00,54.0,6.83,53.0,7.37,12.41,47.59359,-54.27349
2021-02-05 03:44:01+00:00,50.0,5.94,51.0,6.56,12.41,47.59359,-54.27349
2021-02-05 03:54:01+00:00,20.0,3.9,18.0,4.28,12.41,47.59359,-54.27349
2021-02-05 04:04:01+00:00,37.0,5.75,37.0,6.5,12.41,47.59359,-54.27349
2021-02-05 04:14:01+00:00,27.0,6.01,25.0,6.46,12.41,47.59359,-54.27349
2021-02-05 04:24:01+00:00,22.0,5.4,20.0,5.98,12.41,47.59359,-54.27349
2021-02-05 04:34:01+00:00,21.0,5.35,19.0,5.89,12.41,47.59359,-54.27349
2021-02-05 04:44:01+00:00,14.0,3.87,27.0,4.48,12.41,47.59359,-54.27349
2021-02-05 04:54:01+00:00,19.0,3.66,20.0,4.14,12.41,47.59359,-54.27349
2021-02-05 05:04:01+00:00,45.0,4.67,45.0,5.07,12.41,47.59359,-54.27349
2021-02-05 05:14:01+00:00,64.0,2.46,73.0,2.83,12.41,47.59359,-54.27349
2021-02-05 05:24:01+00:00,51.0,2.45,50.0,2.91,12.41,47.59359,-54.27349
2021-02-05 05:34:01+00:00,57.0,2.45,65.0,3.07,12.41,47.59359,-54.27349
2021-02-05 05:44:01+00:00,64.0,3.22,61.0,3.58,12.41,47.59359,-54.27349
2021-02-05 05:54:01+00:00,57.0,3.86,57.0,4.32,12.41,47.59359,-54.27349
2021-02-05 06:04:01+00:00,55.0,5.49,53.0,6.02,12.41,47.59359,-54.27349
2021-02-05 06:14:01+00:00,57.0,5.57,55.0,6.1,12.41,47.59359,-54.27349
2021-02-05 06:24:01+00:00,55.0,4.74,54.0,5.35,12.41,47.59359,-54.27349
2021-02-05 06:34:01+00:00,53.0,6.18,53.0,6.73,12.41,47.59359,-54.27349
2021-02-05 06:44:01+00:00,48.0,3.95,43.0,4.44,12.41,47.59359,-54.27349
2021-02-05 06:54:01+00:00,43.0,4.7,45.0,5.26,12.41,47.59359,-54.27349
2021-02-05 07:04:01+00:00,64.0,3.99,64.0,4.84,12.41,47.59359,-54.27349
2021-02-05 07:14:01+00:00,66.0,3.17,66.0,3.45,12.41,47.59359,-54.27349
2021-02-05 07:24:01+00:00,56.0,4.1,57.0,4.38,12.41,47.59359,-54.27349
2021-02-05 07:34:01+00:00,62.0,3.8,71.0,4.41,12.41,47.59359,-54.27349
2021-02-05 07:44:01+00:00,72.0,3.5,76.0,4.48,12.41,47.59359,-54.27349
2021-02-05 07:54:01+00:00,62.0,3.01,60.0,3.36,12.41,47.59359,-54.27349
2021-02-05 08:04:01+00:00,61.0,3.23,62.0,3.34,12.41,47.59359,-54.27349
2021-02-05 08:14:01+00:00,308.0,2.31,302.0,3.07,12.33,47.59359,-54.27349
2021-02-05 08:24:01+00:00,315.0,0.01,448.0,0.0,12.33,47.59359,-54.27349
2021-02-05 08:34:01+00:00,315.0,0.01,0.0,0.0,12.33,47.59359,-54.27349
2021-02-05 08:44:01+00:00,51.0,2.52,53.0,3.0,12.33,47.59359,-54.27349
2021-02-05 08:54:01+00:00,54.0,2.32,55.0,2.98,12.33,47.59359,-54.27349
2021-02-05 09:04:01+00:00,43.0,3.94,43.0,4.32,12.33,47.59359,-54.27349
2021-02-05 09:14:01+00:00,48.0,3.58,45.0,3.93,12.33,47.59359,-54.27349
2021-02-05 09:24:01+00:00,53.0,3.06,52.0,3.41,12.33,47.59359,-54.27349
2021-02-05 09:34:01+00:00,20.0,2.73,19.0,2.95,12.33,47.59359,-54.27349
2021-02-05 09:44:01+00:00,22.0,2.2,18.0,2.57,12.33,47.59359,-54.27349
2021-02-05 09:54:01+00:00,32.0,3.46,33.0,3.95,12.33,47.59359,-54.27349
2021-02-05 10:04:01+00:00,41.0,5.22,47.0,6.04,12.33,47.59359,-54.27349
2021-02-05 10:14:01+00:00,50.0,3.7,51.0,4.05,12.25,47.59359,-54.27349
2021-02-05 10:24:01+00:00,48.0,4.34,45.0,4.74,12.25,47.59359,-54.27349
2021-02-05 10:34:01+00:00,58.0,4.16,60.0,4.62,12.25,47.59359,-54.27349
2021-02-05 10:44:01+00:00,64.0,3.68,64.0,4.09,12.25,47.59359,-54.27349
2021-02-05 10:54:01+00:00,69.0,2.97,69.0,3.43,12.25,47.59359,-54.27349
2021-02-05 11:04:01+00:00,106.0,1.31,109.0,1.75,12.25,47.59359,-54.27349
2021-02-05 11:14:01+00:00,162.0,2.06,169.0,2.72,12.25,47.59359,-54.27349
2021-02-05 11:24:01+00:00,188.0,2.45,186.0,2.63,12.25,47.59359,-54.27349
2021-02-05 11:34:01+00:00,211.0,5.57,212.0,6.18,12.25,47.59359,-54.27349
2021-02-05 11:44:01+00:00,219.0,5.46,221.0,6.04,12.25,47.59359,-54.27349
2021-02-05 11:54:01+00:00,210.0,3.59,213.0,4.12,12.25,47.59359,-54.27349
2021-02-05 12:04:01+00:00,204.0,3.6,209.0,4.02,12.25,47.59359,-54.27349
2021-02-05 12:14:01+00:00,199.0,4.31,204.0,4.66,12.41,47.59359,-54.27349
2021-02-05 12:24:01+00:00,200.0,4.77,204.0,5.19,12.41,47.59359,-54.27349
2021-02-05 12:34:01+00:00,191.0,5.26,194.0,6.06,12.41,47.59359,-54.27349
2021-02-05 12:44:01+00:00,203.0,5.45,206.0,6.14,12.41,47.59359,-54.27349
2021-02-05 12:54:01+00:00,213.0,6.06,218.0,6.99,12.41,47.59359,-54.27349
2021-02-05 13:04:01+00:00,212.0,6.67,214.0,7.48,12.41,47.59359,-54.27349
2021-02-05 13:14:01+00:00,210.0,7.1,211.0,7.11,12.97,47.59359,-54.27349
2021-02-05 13:24:01+00:00,194.0,6.24,224.0,8.22,12.97,47.59359,-54.27349
2021-02-05 13:34:01+00:00,210.0,7.05,213.0,7.75,12.97,47.59359,-54.27349
2021-02-05 13:44:01+00:00,213.0,7.7,214.0,8.66,12.97,47.59359,-54.27349
2021-02-05 13:54:01+00:00,215.0,6.95,216.0,7.81,12.97,47.59359,-54.27349
2021-02-05 14:04:01+00:00,210.0,7.27,221.0,8.78,12.97,47.59359,-54.27349
2021-02-05 14:14:01+00:00,208.0,7.4,207.0,8.06,13.76,47.59359,-54.27349
2021-02-05 14:24:01+00:00,210.0,7.03,211.0,7.94,13.76,47.59359,-54.27349
2021-02-05 14:34:01+00:00,203.0,8.98,204.0,9.74,13.76,47.59359,-54.27349
2021-02-05 14:44:01+00:00,212.0,7.67,214.0,8.64,13.76,47.59359,-54.27349
2021-02-05 14:54:01+00:00,209.0,7.6,211.0,8.12,13.76,47.59359,-54.27349
2021-02-05 15:04:01+00:00,227.0,7.46,234.0,8.77,13.76,47.59359,-54.27349
2021-02-05 15:14:01+00:00,225.0,6.96,222.0,7.93,13.53,47.59359,-54.27349
2021-02-05 15:24:01+00:00,234.0,7.87,224.0,9.44,13.53,47.59359,-54.27349
2021-02-05 15:34:01+00:00,238.0,7.43,236.0,8.33,13.53,47.59359,-54.27349
2021-02-05 15:44:01+00:00,234.0,7.92,234.0,8.71,13.53,47.59359,-54.27349
2021-02-05 15:54:01+00:00,230.0,7.51,230.0,8.8,13.53,47.59359,-54.27349
2021-02-05 16:04:01+00:00,228.0,7.86,231.0,9.02,13.53,47.59359,-54.27349
2021-02-05 16:14:01+00:00,220.0,7.05,220.0,8.02,13.44,47.59359,-54.27349
2021-02-05 16:24:01+00:00,215.0,5.87,211.0,6.76,13.44,47.59359,-54.27349
2021-02-05 16:34:01+00:00,211.0,4.95,215.0,5.6,13.44,47.59359,-54.27349
2021-02-05 16:44:01+00:00,214.0,4.91,213.0,5.66,13.44,47.59359,-54.27349
2021-02-05 16:54:01+00:00,214.0,7.89,216.0,8.68,13.44,47.59359,-54.27349
2021-02-05 17:04:01+00:00,212.0,7.43,216.0,8.46,13.44,47.59359,-54.27349
2021-02-05 17:14:01+00:00,206.0,8.62,205.0,9.67,13.84,47.59359,-54.27349
2021-02-05 17:24:01+00:00,205.0,8.97,206.0,10.35,13.84,47.59359,-54.27349
2021-02-05 17:34:01+00:00,214.0,8.58,218.0,10.18,13.84,47.59359,-54.27349
2021-02-05 17:44:01+00:00,212.0,8.34,215.0,9.31,13.84,47.59359,-54.27349
2021-02-05 17:54:01+00:00,211.0,8.01,212.0,8.91,13.84,47.59359,-54.27349
2021-02-05 18:04:01+00:00,216.0,8.49,217.0,9.38,13.84,47.59359,-54.27349
2021-02-05 18:14:01+00:00,213.0,10.28,211.0,11.15,13.21,47.59359,-54.27349
2021-02-05 18:24:01+00:00,217.0,8.71,216.0,9.48,13.21,47.59359,-54.27349
2021-02-05 18:34:01+00:00,210.0,7.52,205.0,8.3,13.21,47.59359,-54.27349
2021-02-05 18:44:01+00:00,210.0,6.36,215.0,8.2,13.21,47.59359,-54.27349
2021-02-05 18:54:01+00:00,251.0,7.32,256.0,9.44,13.21,47.59359,-54.27349
2021-02-05 19:04:01+00:00,243.0,6.69,247.0,8.03,13.21,47.59359,-54.27349
2021-02-05 20:14:01+00:00,253.0,6.36,248.0,7.72,12.73,47.59359,-54.27349
2021-02-05 20:24:01+00:00,254.0,7.48,248.0,8.85,12.73,47.59359,-54.27349
2021-02-05 20:34:01+00:00,253.0,8.26,249.0,8.97,12.73,47.59359,-54.27349
2021-02-05 20:44:01+00:00,254.0,7.1,255.0,8.4,12.73,47.59359,-54.27349
2021-02-05 20:54:01+00:00,255.0,8.15,254.0,8.81,12.73,47.59359,-54.27349
2021-02-05 21:04:01+00:00,258.0,7.87,263.0,8.71,12.73,47.59359,-54.27349
2021-02-05 21:14:01+00:00,252.0,8.09,252.0,8.7,12.65,47.59359,-54.27349
2021-02-05 21:24:01+00:00,250.0,8.57,253.0,9.94,12.65,47.59359,-54.27349
2021-02-05 21:34:01+00:00,251.0,8.54,252.0,9.71,12.65,47.59359,-54.27349
2021-02-05 21:44:01+00:00,247.0,9.07,251.0,10.77,12.65,47.59359,-54.27349
2021-02-05 21:54:01+00:00,245.0,6.65,238.0,7.71,12.65,47.59359,-54.27349
2021-02-05 22:04:01+00:00,253.0,6.3,250.0,7.76,12.65,47.59359,-54.27349
2021-02-05 22:14:01+00:00,256.0,7.97,257.0,8.84,12.57,47.59359,-54.27349
2021-02-05 22:24:01+00:00,250.0,8.41,247.0,9.9,12.57,47.59359,-54.27349
2021-02-05 22:34:01+00:00,254.0,8.33,250.0,9.35,12.57,47.59359,-54.27349
2021-02-05 22:44:01+00:00,251.0,9.74,256.0,11.71,12.57,47.59359,-54.27349
2021-02-05 22:54:01+00:00,255.0,8.77,255.0,9.98,12.57,47.59359,-54.27349
2021-02-05 23:04:01+00:00,258.0,7.37,263.0,8.72,12.57,47.59359,-54.27349
2021-02-05 23:14:01+00:00,252.0,7.32,248.0,8.28,12.57,47.59359,-54.27349
2021-02-05 23:24:01+00:00,241.0,6.82,238.0,7.58,12.57,47.59359,-54.27349
2021-02-05 23:34:01+00:00,241.0,7.22,241.0,8.17,12.57,47.59359,-54.27349
2021-02-05 23:44:01+00:00,241.0,8.52,246.0,9.46,12.57,47.59359,-54.27349
2021-02-05 23:54:01+00:00,245.0,7.89,244.0,8.79,12.57,47.59359,-54.27349
